Tracking 32139 objects as of 14-Nov-2025
HD Live streaming from Space Station
objects crossing your sky now

IUE

Track IUE now!
IUE is classified as:


NORAD ID: 10637
Int'l Code: 1978-012A
Perigee: 29,590.8 km
Apogee: 42,106.5 km
Inclination: 37.2 °
Period: 1,438.9 minutes
Semi major axis: 42219 km
RCS: 5.9851 m2 (large)
Launch date: January 26, 1978
Source: United States (US)
Launch site: AIR FORCE EASTERN TEST RANGE (AFETR)

The International Ultraviolet Explorer (IUE, formerly SAS-D) satellite was a spaceborne ultraviolet astronomical observatory for use as an international facility. IUE was shut down at 18:42 UT, 30 September 1996.
Your satellite tracking list
Your tracking list is empty




NASA's NSSDC Master Catalog

Two Line Element Set (TLE):
1 10637U 78012A   25317.73488609 -.00000311  00000-0  00000-0 0  9994
2 10637  37.2313 291.6685 1482207 263.1931  81.7607  1.00076220126921
Source of the keplerian elements: AFSPC